[[{"header":{"parameterUnit":"m.s-1","parameterCategory":1,"la1":30.2991,"la2":30.254,"lo1":-89.0895,"lo2":-89.0444,"dy":0.0017,"dx":0.0017,"nx":28,"ny":28,"refTime":"2025-08-20T03:00:00:Z","depth":0,"parameterNumber":2,"parameterNumberName":"U-component_of_WINDS"},"data":[0,0,0,0,0,0,0,0,0,0,0,0,0,0,0,0,0,0,0,0,0,0,0,0,0,0,0,0,0,0,0,0,0,0,0,0,0,0,0,0,0,0,0,0,0,0,0,0,0,0,0,0,0,0,0,0,0,0,-0.7618,-0.7617,0,-0.7596,-0.7595,-0.7595,-0.7554,-0.7553,-0.7553,-0.7552,-0.7531,-0.7531,-0.7531,0,0,0,0,0,0,0,0,0,0,0,0,0,-0.7625,-0.7625,-0.7618,-0.7617,-0.7617,-0.7596,-0.7595,-0.7595,-0.7554,-0.7553,-0.7552,-0.7551,-0.7531,-0.7531,-0.7531,0,0,0,0,0,0,0,0,0,0,0,0,0,-0.7614,-0.7625,-0.7618,-0.7594,-0.7592,-0.7596,-0.7595,-0.7595,-0.7554,-0.7553,-0.7552,-0.7551,-0.7531,-0.7531,-0.7531,-0.7557,0,0,-0.7532,-0.7532,0,0,0,0,0,0,0,0,-0.7615,-0.7614,-0.7598,-0.7596,-0.7593,-0.7576,-0.759,-0.7582,-0.7555,-0.7569,-0.7552,-0.755,-0.7547,-0.7546,-0.7544,-0.7556,-0.7555,-0.7532,-0.7532,-0.7532,-0.7532,0,0,0,0,0,0,0,-0.7616,-0.7615,-0.7609,-0.7598,-0.7595,-0.7585,-0.7582,-0.7589,-0.7565,-0.7567,-0.7564,-0.7562,-0.7545,-0.7544,-0.7544,-0.7554,-0.7532,-0.7532,-0.7532,-0.7532,-0.7586,-0.7587,0,0,0,0,0,0,-0.762,-0.7616,-0.761,-0.7608,-0.7601,-0.7586,-0.7583,-0.7583,-0.7565,-0.7561,-0.7563,-0.756,-0.7544,-0.7543,-0.7543,-0.7572,-0.7532,-0.7532,-0.7533,-0.7585,-0.7586,-0.7588,0,0,0,0,0,0,-0.762,-0.762,-0.761,-0.7611,-0.7609,-0.7587,-0.7588,-0.7583,-0.7582,-0.7561,-0.7557,-0.7566,-0.7543,-0.7542,-0.7553,-0.7571,-0.7533,-0.7533,-0.7583,-0.7585,-0.7587,-0.7631,0,0,0,0,0,0,-0.7621,-0.762,-0.7629,-0.7612,-0.7609,-0.7622,-0.7589,-0.7584,-0.7582,-0.7578,-0.7563,-0.756,-0.7542,-0.7553,-0.7554,-0.7571,-0.7533,-0.7582,-0.7584,-0.7586,-0.7628,-0.7634,-0.764,0,0,0,0,0,-0.7621,-0.7643,-0.763,-0.763,-0.7621,-0.7623,-0.7621,-0.7601,-0.7584,-0.7593,-0.758,-0.756,-0.7568,-0.7555,-0.7555,-0.7572,-0.7581,-0.7584,-0.7586,-0.7625,-0.7633,-0.7639,0,0,0,0,0,0,-0.7664,-0.764,-0.7626,-0.7642,-0.7635,-0.7616,-0.7627,-0.7609,-0.7607,-0.7603,-0.7578,-0.7575,-0.759,-0.7582,-0.7567,-0.7596,-0.7571,-0.7574,-0.7601,-0.7608,-0.7614,-0.7616,-0.7533,0,0,0,0,0,-0.7675,-0.7679,-0.7658,-0.7674,-0.7671,-0.765,-0.765,-0.7635,-0.7626,-0.7623,-0.761,-0.7603,-0.7604,-0.7605,-0.7605,-0.7626,-0.7623,-0.7638,-0.7644,-0.7648,-0.7652,-0.7663,-0.767,-0.7597,-0.7597,-0.7597,0,0,-0.7699,-0.7686,-0.769,-0.7683,-0.7675,-0.768,-0.7648,-0.7654,-0.7657,-0.7624,-0.7634,-0.7624,-0.7615,-0.7631,-0.7638,-0.7625,-0.7671,-0.7652,-0.7656,-0.7657,-0.7667,-0.7674,-0.768,-0.7599,-0.7599,-0.7598,0,0,-0.7745,-0.7735,-0.7748,-0.7741,-0.773,-0.7715,-0.7718,-0.7702,-0.7694,-0.7704,-0.7679,-0.7682,-0.7684,-0.7678,-0.7676,-0.7719,-0.7701,-0.7719,-0.775,-0.7761,-0.7767,-0.7772,-0.7789,-0.7795,-0.7722,-0.7722,-0.7722,0,-0.7776,-0.7782,-0.7757,-0.7765,-0.7763,-0.7732,-0.7746,-0.774,-0.7729,-0.7729,-0.7714,-0.7716,-0.7707,-0.7722,-0.7733,-0.7731,-0.7735,-0.7722,-0.7768,-0.7773,-0.7777,-0.7793,-0.7799,-0.7725,-0.7725,-0.7724,-0.7724,0,-0.7821,-0.7825,-0.7837,-0.7827,-0.7826,-0.7837,-0.7815,-0.7817,-0.7801,-0.7788,-0.7799,-0.7786,-0.7784,-0.7785,-0.777,-0.7799,-0.7791,-0.7773,-0.7748,-0.7787,-0.7801,-0.7807,-0.7728,-0.7727,-0.7727,-0.7726,0,0,-0.7895,-0.7871,-0.7876,-0.7871,-0.7856,-0.7859,-0.7868,-0.7865,-0.7867,-0.786,-0.7868,-0.787,-0.7853,-0.785,-0.7834,-0.7843,-0.788,-0.7824,-0.7823,-0.7836,-0.7911,-0.7927,-0.7934,-0.7867,-0.7868,-0.7868,-0.7913,0,-0.7939,-0.7953,-0.7931,-0.7951,-0.7955,-0.7925,-0.7933,-0.7925,-0.7913,-0.7915,-0.7902,-0.7904,-0.788,-0.7879,-0.7887,-0.7874,-0.7895,-0.787,-0.7875,-0.7875,-0.788,-0.7941,-0.7957,-0.8,-0.7918,-0.7919,-0.7919,0,-0.7992,-0.7988,-0.8008,-0.7991,-0.7992,-0.8,-0.7995,-0.7997,-0.7987,-0.7977,-0.7974,-0.7954,-0.7963,-0.7937,-0.7949,-0.7932,-0.7933,-0.7926,-0.7927,-0.7929,-0.7901,-0.7946,-0.8013,-0.802,-0.7928,-0.7927,-0.7926,0,-0.8046,-0.8045,-0.8057,-0.8053,-0.8034,-0.804,-0.8033,-0.8021,-0.8021,-0.8016,-0.8016,-0.8013,-0.8012,-0.801,-0.799,-0.7973,-0.8004,-0.7977,-0.7998,-0.7999,-0.8008,-0.8008,-0.8078,-0.8005,-0.8005,-0.8005,-0.8005,0,-0.8098,-0.8112,-0.8081,-0.8089,-0.8103,-0.8078,-0.8093,-0.8082,-0.8072,-0.8078,-0.8051,-0.8057,-0.8029,-0.8032,-0.8017,-0.8029,-0.8028,-0.8022,-0.8018,-0.8025,-0.8027,-0.8027,-0.8024,-0.8006,-0.8006,-0.8006,-0.8005,0,-0.8162,-0.8141,-0.8153,-0.8133,-0.8128,-0.814,-0.8124,-0.813,-0.8116,-0.8123,-0.8123,-0.8101,-0.8103,-0.8082,-0.808,-0.807,-0.809,-0.808,-0.8094,-0.8092,-0.8114,-0.8113,-0.8189,-0.8198,-0.8118,-0.8118,-0.8119,0,-0.8198,-0.8208,-0.8189,-0.819,-0.8184,-0.8186,-0.8186,-0.8161,-0.8161,-0.815,-0.8158,-0.8157,-0.8156,-0.8161,-0.8145,-0.8143,-0.8134,-0.816,-0.8134,-0.8141,-0.8136,-0.8137,-0.8138,-0.8167,-0.8168,-0.8168,-0.8169,0,-0.8264,-0.8253,-0.8252,-0.8249,-0.8248,-0.8244,-0.8238,-0.8241,-0.8214,-0.8215,-0.8217,-0.8215,-0.8213,-0.8214,-0.8209,-0.8201,-0.8181,-0.8177,-0.8182,-0.8191,-0.8199,-0.8197,-0.8111,-0.8176,-0.8175,-0.8175,-0.8175,-0.8174,-0.8316,-0.8323,-0.8312,-0.8312,-0.8305,-0.83,-0.8305,-0.8291,-0.8292,-0.8288,-0.8272,-0.8277,-0.8266,-0.8258,-0.8252,-0.8255,-0.8243,-0.8249,-0.8252,-0.8254,-0.8259,-0.8197,-0.8254,-0.8254,-0.8253,-0.8253,-0.8253,0,-0.8382,-0.8373,-0.8373,-0.8366,-0.8366,-0.8346,-0.8338,-0.834,-0.8344,-0.8336,-0.8334,-0.8336,-0.8336,-0.832,-0.8318,-0.8324,-0.8315,-0.8325,-0.8325,-0.8324,-0.827,-0.8267,-0.8332,-0.8332,-0.8332,-0.8332,-0.8332,-0.8332,-0.8417,-0.8429,-0.8417,-0.8425,-0.8415,-0.8419,-0.8417,-0.8412,-0.8405,-0.8409,-0.8408,-0.8397,-0.8386,-0.8383,-0.8382,-0.8377,-0.8379,-0.8392,-0.8384,-0.8335,-0.8327,-0.832,-0.8317,-0.8392,-0.8392,-0.8438,-0.8439,-0.8439]},{"header":{"parameterUnit":"m.s-1","parameterCategory":1,"la1":30.2991,"la2":30.254,"lo1":-89.0895,"lo2":-89.0444,"dy":0.0017,"dx":0.0017,"nx":28,"ny":28,"refTime":"2025-08-20T03:00:00:Z","depth":0,"parameterNumber":3,"parameterNumberName":"V-component_of_WINDS"},"data":[0,0,0,0,0,0,0,0,0,0,0,0,0,0,0,0,0,0,0,0,0,0,0,0,0,0,0,0,0,0,0,0,0,0,0,0,0,0,0,0,0,0,0,0,0,0,0,0,0,0,0,0,0,0,0,0,0,0,-0.7006,-0.7006,0,-0.7005,-0.7005,-0.7005,-0.6991,-0.699,-0.699,-0.699,-0.6989,-0.6989,-0.6989,0,0,0,0,0,0,0,0,0,0,0,0,0,-0.6995,-0.6996,-0.7006,-0.7006,-0.7006,-0.7005,-0.7005,-0.7005,-0.6991,-0.699,-0.699,-0.6989,-0.6989,-0.6989,-0.6989,0,0,0,0,0,0,0,0,0,0,0,0,0,-0.6998,-0.6996,-0.7006,-0.6999,-0.6998,-0.7005,-0.7005,-0.7005,-0.6991,-0.699,-0.699,-0.6989,-0.6989,-0.6989,-0.6989,-0.7003,0,0,-0.6991,-0.6991,0,0,0,0,0,0,0,0,-0.6998,-0.6998,-0.7,-0.6999,-0.6998,-0.6997,-0.7001,-0.7004,-0.6991,-0.6994,-0.699,-0.6989,-0.6992,-0.6992,-0.6993,-0.7003,-0.7003,-0.6991,-0.6991,-0.6991,-0.6992,0,0,0,0,0,0,0,-0.6998,-0.6998,-0.7005,-0.7,-0.6999,-0.6995,-0.6995,-0.7001,-0.6996,-0.6993,-0.6992,-0.6992,-0.6992,-0.6993,-0.6993,-0.7003,-0.6991,-0.6991,-0.6992,-0.6992,-0.7025,-0.7025,0,0,0,0,0,0,-0.6998,-0.6998,-0.7005,-0.7005,-0.6997,-0.6996,-0.6996,-0.6998,-0.6996,-0.6995,-0.6993,-0.6992,-0.6992,-0.6993,-0.6993,-0.7009,-0.6991,-0.6992,-0.6992,-0.7024,-0.7025,-0.7025,0,0,0,0,0,0,-0.6998,-0.6999,-0.7005,-0.7001,-0.7002,-0.6997,-0.7,-0.6998,-0.7,-0.6995,-0.6994,-0.6995,-0.6992,-0.6992,-0.7001,-0.7009,-0.6992,-0.6992,-0.7023,-0.7024,-0.7025,-0.7042,0,0,0,0,0,0,-0.6998,-0.6999,-0.7004,-0.7002,-0.7002,-0.7013,-0.7,-0.6999,-0.7,-0.6999,-0.6997,-0.6996,-0.6991,-0.7,-0.7001,-0.7009,-0.6993,-0.7023,-0.7024,-0.7025,-0.7041,-0.7043,-0.7045,0,0,0,0,0,-0.6998,-0.7009,-0.7004,-0.7005,-0.7008,-0.7014,-0.7014,-0.7008,-0.7001,-0.7006,-0.7004,-0.6996,-0.7008,-0.7001,-0.7002,-0.7011,-0.7022,-0.7023,-0.7025,-0.7039,-0.7043,-0.7045,0,0,0,0,0,0,-0.7012,-0.7008,-0.7004,-0.7014,-0.7014,-0.7011,-0.7018,-0.7012,-0.7014,-0.7012,-0.7005,-0.7005,-0.7015,-0.7013,-0.7006,-0.7024,-0.7014,-0.7015,-0.7025,-0.7028,-0.703,-0.703,-0.6993,0,0,0,0,0,-0.7017,-0.7021,-0.7018,-0.7027,-0.7028,-0.7023,-0.7025,-0.702,-0.702,-0.702,-0.7018,-0.7018,-0.7022,-0.7025,-0.7028,-0.704,-0.704,-0.7046,-0.7049,-0.7051,-0.7053,-0.706,-0.7063,-0.703,-0.703,-0.703,0,0,-0.7026,-0.7024,-0.7028,-0.703,-0.703,-0.7035,-0.7023,-0.7029,-0.7032,-0.7021,-0.7029,-0.7028,-0.7027,-0.7038,-0.7043,-0.7037,-0.7062,-0.7053,-0.7054,-0.7055,-0.7061,-0.7065,-0.7067,-0.7031,-0.7031,-0.703,0,0,-0.7046,-0.7045,-0.7053,-0.7053,-0.7053,-0.7049,-0.7052,-0.7049,-0.7048,-0.7056,-0.7048,-0.7052,-0.7058,-0.7059,-0.706,-0.708,-0.7074,-0.7081,-0.7095,-0.7102,-0.7104,-0.7107,-0.7114,-0.7117,-0.7083,-0.7083,-0.7083,0,-0.7058,-0.7065,-0.7058,-0.7065,-0.7066,-0.7056,-0.7065,-0.7065,-0.7066,-0.7067,-0.7061,-0.707,-0.7069,-0.708,-0.7085,-0.7086,-0.7088,-0.7082,-0.7104,-0.7107,-0.7109,-0.7116,-0.7119,-0.7084,-0.7084,-0.7084,-0.7084,0,-0.708,-0.7085,-0.7092,-0.7093,-0.7095,-0.7103,-0.7097,-0.71,-0.7096,-0.7093,-0.7102,-0.71,-0.7103,-0.7105,-0.7101,-0.7116,-0.7113,-0.7106,-0.7095,-0.7113,-0.712,-0.7123,-0.7085,-0.7085,-0.7085,-0.7085,0,0,-0.7109,-0.7107,-0.7109,-0.711,-0.7109,-0.7113,-0.712,-0.7123,-0.7126,-0.7127,-0.7133,-0.7139,-0.7133,-0.7134,-0.7129,-0.7135,-0.7152,-0.7128,-0.7127,-0.7133,-0.717,-0.7176,-0.7179,-0.7148,-0.7148,-0.7149,-0.717,0,-0.7129,-0.7141,-0.7135,-0.7148,-0.7153,-0.7144,-0.715,-0.7151,-0.7148,-0.7152,-0.715,-0.7154,-0.7145,-0.7146,-0.7151,-0.7149,-0.716,-0.7147,-0.7154,-0.7154,-0.7155,-0.7182,-0.7189,-0.7209,-0.7173,-0.7173,-0.7173,0,-0.7153,-0.7155,-0.7169,-0.7168,-0.717,-0.7176,-0.7178,-0.7182,-0.7182,-0.718,-0.7182,-0.7176,-0.7183,-0.7172,-0.7182,-0.7174,-0.7176,-0.7176,-0.7176,-0.7177,-0.7165,-0.7185,-0.7215,-0.7218,-0.7177,-0.7177,-0.7177,0,-0.7174,-0.718,-0.719,-0.719,-0.7189,-0.7193,-0.7193,-0.7192,-0.7195,-0.7197,-0.7198,-0.7201,-0.7203,-0.7206,-0.7201,-0.7193,-0.7212,-0.7201,-0.7211,-0.7211,-0.7216,-0.7216,-0.7247,-0.7216,-0.7216,-0.7216,-0.7216,0,-0.7197,-0.7206,-0.7199,-0.7205,-0.7215,-0.7208,-0.7218,-0.7216,-0.7216,-0.7222,-0.7213,-0.7219,-0.7212,-0.7216,-0.7212,-0.7222,-0.7222,-0.7221,-0.722,-0.7222,-0.7223,-0.7224,-0.7223,-0.7217,-0.7217,-0.7216,-0.7216,0,-0.7222,-0.7218,-0.7228,-0.7225,-0.7225,-0.7232,-0.7231,-0.7236,-0.7233,-0.724,-0.7241,-0.7237,-0.7242,-0.7237,-0.7242,-0.7239,-0.7252,-0.7249,-0.7252,-0.7252,-0.7262,-0.7262,-0.7297,-0.7301,-0.7267,-0.7267,-0.7267,0,-0.7238,-0.7245,-0.7243,-0.7246,-0.7246,-0.7251,-0.7254,-0.7248,-0.7251,-0.7251,-0.7257,-0.7261,-0.7264,-0.7273,-0.727,-0.7274,-0.7271,-0.7283,-0.7272,-0.7274,-0.7272,-0.7272,-0.7273,-0.7286,-0.7286,-0.7286,-0.7287,0,-0.7266,-0.7263,-0.7267,-0.7271,-0.7274,-0.7276,-0.7278,-0.7281,-0.7274,-0.7278,-0.7283,-0.7286,-0.7291,-0.7295,-0.7298,-0.7298,-0.7291,-0.729,-0.7293,-0.7295,-0.7298,-0.7297,-0.7259,-0.729,-0.7289,-0.7289,-0.7289,-0.7289,-0.7287,-0.7293,-0.7293,-0.7298,-0.7298,-0.73,-0.7305,-0.7303,-0.7307,-0.7311,-0.7307,-0.7313,-0.7314,-0.7317,-0.7317,-0.7322,-0.7317,-0.7321,-0.7322,-0.7323,-0.7325,-0.7296,-0.7323,-0.7323,-0.7323,-0.7323,-0.7322,0,-0.7315,-0.7315,-0.7319,-0.7322,-0.7326,-0.7319,-0.7321,-0.7324,-0.733,-0.7331,-0.7335,-0.7341,-0.7345,-0.7343,-0.7347,-0.7352,-0.7349,-0.7353,-0.7353,-0.7353,-0.7329,-0.7327,-0.7355,-0.7355,-0.7355,-0.7355,-0.7355,-0.7355,-0.733,-0.734,-0.7338,-0.7348,-0.7347,-0.7354,-0.7355,-0.7357,-0.7358,-0.7365,-0.7369,-0.7367,-0.7367,-0.7371,-0.7375,-0.7374,-0.7376,-0.7381,-0.738,-0.7358,-0.7355,-0.7352,-0.7349,-0.7382,-0.7382,-0.7403,-0.7403,-0.7403]}]]